Flag for U.S.A. Weather past 2 weeks in Sarasota, Florida, U.S.A.

Now
70 °F

Partly cloudy.


Feels Like: 69 °F
Forecast: 65 / 74 °F
Wind: 16 mph from West

Location: Sarasota-Bradenton International Airport


UV Index: 5 (Moderate)

Visibility: 10 mi


Pressure: 29.91 "Hg

Humidity: 84%

Dew point: 65 °F

Location of SarasotaLocation

Historic Weather in Sarasota

°F

Sarasota temperature yesterday

Maximum temperature yesterday: 80 °F (at 12:53 PM)
Minimum temperature yesterday: 68 °F (at 11:53 PM)
Average temperature yesterday: 72 °F

Past Weeks' High & Low Weather Summary

 TemperatureHumidityPressure
High85 °F (Apr 12, 1:53 PM)100% (Apr 5, 7:53 AM)30.27 "Hg (Apr 5, 7:53 AM)
Low56 °F (Apr 16, 7:53 AM)31% (Apr 10, 1:53 PM)29.74 "Hg (Apr 8, 4:53 AM)
Average72 °F74%30.01 "Hg
* Reported Apr 4 4:53 AM — Apr 19 4:53 AM, Sarasota, Weather by CustomWeather, © 2014

Note: Actual official high and low records may vary slightly from our data, if they occured in-between our weather recording intervals... More about our weather records

Advertising

Historic Weather Conditions — Data for Previous 24 hours

 ConditionsComfort  
Time TempWeatherWind HumidityBarometerVisibility
4:53 AM
Apr 19
71 °FOvercast.13 mph87%29.89 "Hg10 mi
3:53 AM73 °FPassing clouds.9 mph88%29.88 "Hg10 mi
2:53 AM73 °FClear.12 mph84%29.90 "Hg10 mi
1:53 AM73 °FMostly cloudy.10 mph84%29.93 "Hg10 mi
12:53 AM73 °FOvercast.10 mph88%29.94 "Hg10 mi
11:53 PM
Apr 18
68 °FPassing clouds.5 mph93%29.93 "Hg10 mi
10:53 PM69 °FPassing clouds.3 mph93%29.94 "Hg10 mi
9:53 PM69 °FClear.No wind93%29.93 "Hg10 mi
8:53 PM69 °FSunny.6 mph93%29.91 "Hg10 mi
7:53 PM70 °FSunny.5 mph90%29.92 "Hg10 mi
6:53 PM71 °FPartly sunny.3 mph87%29.92 "Hg10 mi
5:53 PM71 °FCloudy.No wind87%29.94 "Hg10 mi
4:53 PM71 °FBroken clouds.6 mph84%29.96 "Hg10 mi
3:53 PM70 °FLight rain. More clouds than sun.7 mph90%29.98 "Hg10 mi
2:58 PM69 °FThunderstorms. Fog.8 mph90%30.00 "Hg5 mi
1:53 PM77 °FThunderstorms. More clouds than sun.22 mph79%29.99 "Hg5 mi
12:53 PM80 °FOvercast.15 mph69%29.99 "Hg10 mi
12:00 PM78 °FPartly sunny.15 mph76%29.99 "Hg10 mi
10:53 AM76 °FPartly sunny.14 mph82%30.00 "Hg10 mi
9:53 AM74 °FPartly sunny.12 mph88%30.00 "Hg10 mi
8:53 AM73 °FPassing clouds.15 mph88%30.00 "Hg10 mi
7:53 AM72 °FMostly cloudy.15 mph87%30.02 "Hg10 mi
6:53 AM72 °FOvercast.16 mph87%30.01 "Hg10 mi
Weather by CustomWeather, © 2014

See weather overview